Location: St. Louis
(38.6270°N, 90.1994°W)
Time: 20:09:00
(UTC-06:00)

Altair - Pass Details

Date: 03 December 2021
Orbit: 1501 x 1683 km, 47.2° (Epoch: 26 January)

Event Time Altitude Azimuth Distance (km) Brightness Sun altitude
Rises 19:45:34 0° 293° (WNW) 4,691 10.9 -35.7°
Reaches altitude 10° 19:48:44 10° 297° (WNW) 3,690 10.1 -36.3°
Enters shadow 19:56:40 55° 348° (NNW) 1,770 7.7 -37.8°
